STARLINK-11702 [DTC] (63752 NORAD) Tracking and Keplerian Element Data

This shows tracking and keplerian element data for the satellite.

Feedback or suggestion? Click here.




ElementValue
Catalog63752
NameSTARLINK-11702 [DTC]
Epoch Orbit3763
Epoch Day354.19486754
Epoch Year2025
RAAN51.3577
Inclination43.001
Eccentricity0.0004428
Argument of Perigee280.5514
Mean Anonmoly79.4855
Mean Motion15.70949563
Decay Rate0.00146454
L11 63752U 25089B 25354.19486754 .00146454 00000+0 11193-2 0 9990
L22 63752 43.0010 51.3577 0004428 280.5514 79.4855 15.70949563 37630



Live tracking and technical data element details for STARLINK-11702 [DTC] (NORAD 63752). STARLINK-11702 [DTC] can be tracked NOW for your location showing map with azimuth and elevation plus other details from your city location.







IsCatalogInMostPopularTable: catalog: 63752, numindb: 4
Update: records affected: 1



GetName: 63752 STARLINK-11702 [DTC]

Hit Count: updated at: Sat, 11 Apr 2026 21:46:41 GMT